Погода в Безопасном

Россия / Ставропольский край     45°38′30″N   41°56′31″E
темп.,
°C
ветер,
м/с
пор.,
м/с
влажн.,
%
обл.,
%
осадки,
мм/ч
давл.,
гПа
погр.,
м
16 сентября, чт
чт1600:00+20св612461 0.0 1013337
03:00+19св5103699 0.0 1013334
06:00+19св4929100 0.0 1013373
09:00+21св5626100 0.1 1013606
12:00+20св4635100 0.1 1014616
15:00+22св5628100 0.1 1014957
18:00+20св3632100 0.0 1014242
21:00+18вюв3539100 0.0 1016227
17 сентября, пт
пт1700:00+15вюв4666100 0.0 1017286
03:00+14вюв476488 0.0 1017362
06:00+13вюв4679100 0.0 1017262
09:00+15в4676100 0.0 1018387
12:00+16в5669100 0.0 1017563
15:00+18вюв555976 0.0 1016911
18:00+16в46650 0.0 1016290
21:00+13в48780 0.0 1016151
18 сентября, сб
сб1800:00+12в48765 0.0 1016151
03:00+12вюв366854 0.0 1016100
06:00+12вюв35695 0.0 101678
09:00+19юв33525 0.0 1016483
12:00+24юв33425 0.0 10141322
15:00+26ююв2235100 0.0 10131927
18:00+22юв1143100 0.0 101313
21:00+20юв3952100 0.0 1014277
19 сентября, вс
вс1900:00+19юв51051100 0.0 1014323
03:00+17юв51161100 0.0 1014378
06:00+16вюв51269100 0.0 1014372
09:00+20ююв575699 0.1 1016819
12:00+20юв71063100 1.2 1015585
15:00+23вюв5847100 1.2 1013947
18:00+21вюв4105283 0.0 1013265
21:00+20юв4959100 0.0 1013287
20 сентября, пн
пн2000:00+18юв41160100 0.0 1012311
03:00+18юв4866100 0.1 1012166
06:00+18юв3663100 0.0 1012141
09:00+22ююз235034 0.0 1013358
12:00+27зюз563956 0.0 10121750
15:00+28зюз463585 0.0 10112286
18:00+24сз2246100 0.2 101145
21:00+20св1169100 2.4 101217